When you browse on this site, cookies collect data to enhance your experience and personalize the content and advertising you see.
Visit our Privacy Policy to learn more. By continuing to use the site, you agree to this use of cookies and data.
  • In Hungary
  • List of Countries
  • For 7 days
  • Water Temperature
  • Weather Map
  • News
  • Weather Widgets
  • user-avatar
    Login

    Hourly Weather Granja

    Today, 13 November, Wednesday

    Time Temperature Precipitation Wind Pressure Humidity
    00:00 +25°C° 0 mm 2 mps 755 mmHg 86%
    01:00 +26°C° 0 mm 2 mps 755 mmHg 83%
    02:00 +26°C° 0 mm 3 mps 755 mmHg 81%
    03:00 +27°C° 0 mm 3 mps 755 mmHg 79%
    04:00 +27°C° 0 mm 3 mps 755 mmHg 78%
    05:00 +27°C° 0 mm 2 mps 756 mmHg 76%
    06:00 +27°C° 0 mm 2 mps 756 mmHg 75%
    07:00 +29°C° 0 mm 2 mps 757 mmHg 65%
    08:00 +31°C° 0 mm 3 mps 757 mmHg 55%
    09:00 +34°C° 0 mm 3 mps 757 mmHg 45%
    10:00 +36°C° 0 mm 3 mps 757 mmHg 39%
    11:00 +39°C° 0 mm 3 mps 756 mmHg 33%
    12:00 +42°C° 0 mm 3 mps 756 mmHg 27%
    13:00 +41°C° 0 mm 4 mps 755 mmHg 28%
    14:00 +41°C° 0 mm 4 mps 754 mmHg 30%
    15:00 +40°C° 0 mm 5 mps 753 mmHg 32%
    16:00 +36°C° 0 mm 4 mps 754 mmHg 42%
    17:00 +34°C° 0 mm 4 mps 754 mmHg 52%
    18:00 +30°C° 0 mm 4 mps 754 mmHg 63%
    19:00 +29°C° 0 mm 3 mps 755 mmHg 68%
    20:00 +27°C° 0 mm 2 mps 756 mmHg 74%
    21:00 +26°C° 0 mm 1 mps 756 mmHg 79%
    22:00 +26°C° 0 mm 1 mps 756 mmHg 82%
    23:00 +25°C° 0 mm 1 mps 756 mmHg 85%

    Tomorrow, 14 November, Thursday

    Time Temperature Precipitation Wind Pressure Humidity
    00:00 +25°C° 0 mm 1 mps 756 mmHg 88%
    01:00 +26°C° 0 mm 2 mps 755 mmHg 85%
    02:00 +26°C° 0 mm 3 mps 755 mmHg 82%
    03:00 +27°C° 0 mm 3 mps 755 mmHg 79%
    04:00 +27°C° 0 mm 3 mps 756 mmHg 76%
    05:00 +27°C° 0 mm 3 mps 756 mmHg 74%
    06:00 +28°C° 0 mm 3 mps 756 mmHg 71%
    07:00 +29°C° 0 mm 3 mps 757 mmHg 64%
    08:00 +32°C° 0 mm 4 mps 757 mmHg 57%
    09:00 +34°C° 0 mm 4 mps 757 mmHg 50%
    10:00 +36°C° 0 mm 4 mps 757 mmHg 43%
    11:00 +38°C° 0 mm 3 mps 756 mmHg 37%
    12:00 +40°C° 0 mm 3 mps 755 mmHg 31%
    13:00 +41°C° 0 mm 4 mps 755 mmHg 31%
    14:00 +41°C° 0 mm 4 mps 754 mmHg 31%
    15:00 +41°C° 0 mm 5 mps 754 mmHg 31%
    16:00 +37°C° 0 mm 5 mps 754 mmHg 42%
    17:00 +34°C° 0 mm 5 mps 754 mmHg 52%
    18:00 +30°C° 0 mm 5 mps 754 mmHg 63%
    19:00 +29°C° 0 mm 4 mps 755 mmHg 66%
    20:00 +28°C° 0 mm 3 mps 755 mmHg 70%
    21:00 +27°C° 0 mm 2 mps 756 mmHg 74%
    22:00 +27°C° 0 mm 2 mps 756 mmHg 77%
    23:00 +26°C° 0 mm 2 mps 755 mmHg 80%

    Day after tomorrow, 15 November, Friday

    Time Temperature Precipitation Wind Pressure Humidity
    00:00 +25°C° 0 mm 2 mps 755 mmHg 83%
    01:00 +26°C° 0 mm 2 mps 755 mmHg 82%
    02:00 +26°C° 0 mm 3 mps 755 mmHg 81%
    03:00 +27°C° 0 mm 3 mps 754 mmHg 80%
    04:00 +27°C° 0 mm 3 mps 755 mmHg 77%
    05:00 +28°C° 0 mm 3 mps 755 mmHg 73%
    06:00 +28°C° 0 mm 4 mps 755 mmHg 69%
    07:00 +29°C° 0 mm 3 mps 756 mmHg 66%
    08:00 +30°C° 0 mm 3 mps 756 mmHg 60%
    09:00 +33°C° 0 mm 3 mps 757 mmHg 53%
    10:00 +35°C° 0 mm 3 mps 756 mmHg 45%
    11:00 +38°C° 0 mm 3 mps 756 mmHg 38%
    12:00 +40°C° 0 mm 3 mps 755 mmHg 30%
    13:00 +40°C° 0 mm 3 mps 754 mmHg 32%
    14:00 +40°C° 0 mm 4 mps 754 mmHg 34%
    15:00 +38°C° 0 mm 4 mps 753 mmHg 35%
    16:00 +36°C° 0 mm 4 mps 753 mmHg 44%
    17:00 +33°C° 0 mm 4 mps 753 mmHg 53%
    18:00 +30°C° 0 mm 4 mps 753 mmHg 61%
    19:00 +29°C° 0 mm 3 mps 754 mmHg 67%
    20:00 +28°C° 0 mm 2 mps 754 mmHg 73%
    21:00 +27°C° 0 mm 2 mps 755 mmHg 79%
    22:00 +26°C° 0 mm 1 mps 754 mmHg 83%
    23:00 +25°C° 0 mm 1 mps 754 mmHg 87%

    16 November, Saturday

    Time Temperature Precipitation Wind Pressure Humidity
    00:00 +25°C° 0 mm 1 mps 754 mmHg 92%
    01:00 +25°C° 0 mm 1 mps 754 mmHg 92%
    02:00 +25°C° 0 mm 1 mps 753 mmHg 91%
    03:00 +25°C° 0 mm 1 mps 753 mmHg 91%
    04:00 +26°C° 0 mm 2 mps 753 mmHg 87%
    05:00 +26°C° 0 mm 2 mps 754 mmHg 83%
    06:00 +27°C° 0 mm 3 mps 755 mmHg 80%
    07:00 +28°C° 0 mm 3 mps 755 mmHg 72%
    08:00 +29°C° 0 mm 3 mps 755 mmHg 65%
    09:00 +32°C° 0 mm 4 mps 756 mmHg 58%
    10:00 +34°C° 0 mm 3 mps 755 mmHg 50%
    11:00 +37°C° 0 mm 3 mps 755 mmHg 41%
    12:00 +39°C° 0 mm 3 mps 754 mmHg 33%
    13:00 +40°C° 0 mm 4 mps 753 mmHg 34%
    14:00 +40°C° 0 mm 4 mps 753 mmHg 35%
    15:00 +38°C° 0 mm 4 mps 752 mmHg 36%
    16:00 +36°C° 0 mm 4 mps 752 mmHg 46%
    17:00 +33°C° 0 mm 4 mps 752 mmHg 55%
    18:00 +30°C° 0 mm 4 mps 752 mmHg 65%
    19:00 +29°C° 0 mm 3 mps 753 mmHg 70%
    20:00 +28°C° 0 mm 3 mps 753 mmHg 75%
    21:00 +27°C° 0 mm 2 mps 754 mmHg 80%
    22:00 +26°C° 0 mm 2 mps 754 mmHg 83%
    23:00 +26°C° 0 mm 2 mps 754 mmHg 86%

    17 November, Sunday

    Time Temperature Precipitation Wind Pressure Humidity
    00:00 +25°C° 0 mm 1 mps 753 mmHg 89%
    01:00 +25°C° 0 mm 1 mps 753 mmHg 90%
    02:00 +25°C° 0 mm 1 mps 753 mmHg 91%
    03:00 +25°C° 0 mm 1 mps 753 mmHg 91%
    04:00 +25°C° 0 mm 2 mps 753 mmHg 91%
    05:00 +25°C° 0 mm 2 mps 754 mmHg 90%
    06:00 +25°C° 0 mm 2 mps 754 mmHg 89%
    07:00 +28°C° 0 mm 3 mps 755 mmHg 77%
    08:00 +30°C° 0 mm 3 mps 755 mmHg 65%
    09:00 +34°C° 0 mm 4 mps 756 mmHg 53%
    10:00 +36°C° 0 mm 4 mps 755 mmHg 46%
    11:00 +38°C° 0 mm 4 mps 755 mmHg 40%
    12:00 +41°C° 0 mm 4 mps 754 mmHg 34%
    13:00 +40°C° 0 mm 4 mps 754 mmHg 35%
    14:00 +40°C° 0 mm 5 mps 753 mmHg 36%
    15:00 +40°C° 0 mm 6 mps 752 mmHg 36%
    16:00 +36°C° 0 mm 5 mps 752 mmHg 45%
    17:00 +33°C° 0 mm 5 mps 753 mmHg 53%
    18:00 +30°C° 0 mm 5 mps 753 mmHg 62%
    19:00 +29°C° 0 mm 4 mps 753 mmHg 67%
    20:00 +28°C° 0 mm 3 mps 754 mmHg 72%
    21:00 +27°C° 0 mm 2 mps 755 mmHg 78%
    22:00 +26°C° 0 mm 2 mps 755 mmHg 82%
    23:00 +25°C° 0 mm 2 mps 755 mmHg 86%

    18 November, Monday

    Time Temperature Precipitation Wind Pressure Humidity
    00:00 +25°C° 0 mm 1 mps 754 mmHg 90%
    01:00 +25°C° 0 mm 2 mps 754 mmHg 90%
    02:00 +25°C° 0 mm 2 mps 754 mmHg 90%
    03:00 +25°C° 0 mm 2 mps 754 mmHg 91%
    04:00 +25°C° 0 mm 2 mps 755 mmHg 90%
    05:00 +26°C° 0 mm 2 mps 755 mmHg 89%
    06:00 +26°C° 0 mm 2 mps 756 mmHg 88%
    07:00 +28°C° 0 mm 3 mps 756 mmHg 76%
    08:00 +32°C° 0 mm 4 mps 757 mmHg 63%
    09:00 +35°C° 0 mm 4 mps 757 mmHg 51%
    10:00 +37°C° 0 mm 4 mps 757 mmHg 45%
    11:00 +40°C° 0 mm 5 mps 756 mmHg 38%
    12:00 +41°C° 0 mm 5 mps 756 mmHg 32%
    13:00 +41°C° 0 mm 5 mps 755 mmHg 33%
    14:00 +41°C° 0 mm 6 mps 754 mmHg 33%
    15:00 +40°C° 0 mm 6 mps 754 mmHg 33%
    16:00 +38°C° 0 mm 6 mps 754 mmHg 41%
    17:00 +34°C° 0 mm 5 mps 754 mmHg 49%
    18:00 +32°C° 0 mm 5 mps 755 mmHg 57%
    19:00 +30°C° 0 mm 4 mps 755 mmHg 63%
    20:00 +29°C° 0 mm 3 mps 756 mmHg 69%
    21:00 +28°C° 0 mm 2 mps 756 mmHg 75%
    22:00 +27°C° 0 mm 2 mps 756 mmHg 79%
    23:00 +26°C° 0 mm 1 mps 756 mmHg 82%
    Show more